Location: Pasarilla del Rebollar
(40.6790°N, 5.0062°W)
Time: 10:48:46
(UTC+00:00)

In-Cosmos 22 - Pass Details

Date: 22 April 2026
Orbit: 784 x 873 km, 81.2° (Epoch: 20 May)

Event Time Altitude Azimuth Distance (km) Brightness Sun altitude
Exits shadow 04:21:38 - 193° (SSW) 2,740 6.5 -13.0°
Reaches altitude 10° 04:22:40 10° 194° (SSW) 2,336 6.1 -12.8°
Maximum altitude 04:27:55 77° 279° (W) 816 4.0 -11.9°
Drops below altitude 10° 04:33:18 10° 7° (N) 2,384 7.0 -11.0°
Sets 04:35:43 0° 9° (N) 3,330 7.8 -10.6°
